Time,TemperatureF,DewpointF,PressureIn,WindDirection,WindDirectionDegrees,WindSpeedMPH,WindSpeedGustMPH,Humidity,HourlyPrecipIn,Conditions,Clouds,dailyrainin,SoftwareType,DateUTC
2013-11-08 00:13:00,40.3,34.0,30.23,SE,136,0.0,1.0,78,0.00,,,0.00,weatherlink.com 1.10,2013-11-08 06:13:00,
2013-11-08 00:29:00,42.5,34.0,30.22,South,177,1.0,3.0,73,0.00,,,0.00,weatherlink.com 1.10,2013-11-08 06:29:00,
2013-11-08 00:44:00,43.5,34.0,30.22,SSE,159,0.0,3.0,70,0.00,,,0.00,weatherlink.com 1.10,2013-11-08 06:44:00,
2013-11-08 00:59:00,43.8,35.0,30.21,SSE,166,0.0,3.0,70,0.00,,,0.00,weatherlink.com 1.10,2013-11-08 06:59:00,
2013-11-08 01:14:00,43.8,35.0,30.21,SSW,204,1.0,4.0,70,0.00,,,0.00,weatherlink.com 1.10,2013-11-08 07:14:00,
2013-11-08 01:29:00,43.9,35.0,30.21,SSW,201,1.0,2.0,70,0.00,,,0.00,weatherlink.com 1.10,2013-11-08 07:29:00,
2013-11-08 01:44:00,43.9,35.0,30.20,SE,142,0.0,2.0,70,0.00,,,0.00,weatherlink.com 1.10,2013-11-08 07:44:00,
2013-11-08 01:59:00,43.5,35.0,30.20,SSE,166,0.0,2.0,71,0.00,,,0.00,weatherlink.com 1.10,2013-11-08 07:59:00,
2013-11-08 02:14:00,42.8,35.0,30.18,SSW,193,0.0,1.0,73,0.00,,,0.00,weatherlink.com 1.10,2013-11-08 08:14:00,
2013-11-08 02:30:00,42.1,35.0,30.18,SE,126,0.0,1.0,75,0.00,,,0.00,weatherlink.com 1.10,2013-11-08 08:30:00,
2013-11-08 02:44:00,41.3,35.0,30.17,SE,125,0.0,1.0,77,0.00,,,0.00,weatherlink.com 1.10,2013-11-08 08:44:00,
2013-11-08 03:00:00,41.1,35.0,30.16,SSE,159,0.0,1.0,78,0.00,,,0.00,weatherlink.com 1.10,2013-11-08 09:00:00,
2013-11-08 03:14:00,40.4,34.0,30.16,SE,145,0.0,1.0,79,0.00,,,0.00,weatherlink.com 1.10,2013-11-08 09:14:00,
2013-11-08 03:30:00,40.0,34.0,30.15,SE,134,0.0,1.0,80,0.00,,,0.00,weatherlink.com 1.10,2013-11-08 09:30:00,
2013-11-08 03:45:00,39.6,34.0,30.15,SE,134,0.0,1.0,80,0.00,,,0.00,weatherlink.com 1.10,2013-11-08 09:45:00,
2013-11-08 04:00:00,40.0,34.0,30.14,SE,134,1.0,2.0,80,0.00,,,0.00,weatherlink.com 1.10,2013-11-08 10:00:00,
2013-11-08 04:15:00,40.6,35.0,30.13,SSE,150,0.0,2.0,79,0.00,,,0.00,weatherlink.com 1.10,2013-11-08 10:15:00,
2013-11-08 04:31:00,41.4,35.0,30.12,ESE,122,1.0,4.0,77,0.00,,,0.00,weatherlink.com 1.10,2013-11-08 10:31:00,
2013-11-08 04:45:00,42.0,35.0,30.12,SSE,162,0.0,4.0,75,0.00,,,0.00,weatherlink.com 1.10,2013-11-08 10:45:00,
2013-11-08 05:02:00,42.5,34.0,30.11,SSE,153,3.0,5.0,73,0.00,,,0.00,weatherlink.com 1.10,2013-11-08 11:02:00,
2013-11-08 05:15:00,43.4,34.0,30.11,SW,225,1.0,8.0,70,0.00,,,0.00,weatherlink.com 1.10,2013-11-08 11:15:00,
2013-11-08 05:31:00,43.7,34.0,30.11,ESE,112,1.0,8.0,69,0.00,,,0.00,weatherlink.com 1.10,2013-11-08 11:31:00,
2013-11-08 05:46:00,43.6,34.0,30.10,SW,221,0.0,5.0,69,0.00,,,0.00,weatherlink.com 1.10,2013-11-08 11:46:00,
2013-11-08 06:01:00,43.8,34.0,30.09,SSW,195,2.0,7.0,68,0.00,,,0.00,weatherlink.com 1.10,2013-11-08 12:01:00,
2013-11-08 06:15:00,44.0,34.0,30.08,SE,132,3.0,6.0,67,0.00,,,0.00,weatherlink.com 1.10,2013-11-08 12:15:00,
2013-11-08 06:31:00,44.5,34.0,30.07,WNW,291,3.0,7.0,66,0.00,,,0.00,weatherlink.com 1.10,2013-11-08 12:31:00,
2013-11-08 06:47:00,45.0,33.0,30.07,SSE,167,1.0,11.0,64,0.00,,,0.00,weatherlink.com 1.10,2013-11-08 12:47:00,
2013-11-08 07:01:00,45.3,33.0,30.06,SW,217,2.0,10.0,63,0.00,,,0.00,weatherlink.com 1.10,2013-11-08 13:01:00,
2013-11-08 07:16:00,45.3,33.0,30.06,SSW,208,1.0,9.0,63,0.00,,,0.00,weatherlink.com 1.10,2013-11-08 13:16:00,
2013-11-08 07:32:00,45.3,34.0,30.05,SE,134,4.0,10.0,64,0.00,,,0.00,weatherlink.com 1.10,2013-11-08 13:32:00,
2013-11-08 07:47:00,45.6,34.0,30.05,SE,139,4.0,11.0,64,0.00,,,0.00,weatherlink.com 1.10,2013-11-08 13:47:00,
2013-11-08 08:02:00,46.1,34.0,30.04,SSW,209,2.0,12.0,62,0.00,,,0.00,weatherlink.com 1.10,2013-11-08 14:02:00,
2013-11-08 08:16:00,47.2,35.0,30.04,South,175,3.0,16.0,62,0.00,,,0.00,weatherlink.com 1.10,2013-11-08 14:16:00,
2013-11-08 08:32:00,48.9,35.0,30.03,SSW,203,1.0,12.0,59,0.00,,,0.00,weatherlink.com 1.10,2013-11-08 14:32:00,
2013-11-08 08:47:00,50.7,34.0,30.03,SSE,158,3.0,8.0,54,0.00,,,0.00,weatherlink.com 1.10,2013-11-08 14:47:00,
2013-11-08 09:02:00,52.4,36.0,30.03,SE,135,3.0,14.0,53,0.00,,,0.00,weatherlink.com 1.10,2013-11-08 15:02:00,
2013-11-08 09:17:00,54.1,35.0,30.02,SE,146,6.0,9.0,48,0.00,,,0.00,weatherlink.com 1.10,2013-11-08 15:17:00,
2013-11-08 09:32:00,55.4,35.0,30.02,South,181,7.0,17.0,46,0.00,,,0.00,weatherlink.com 1.10,2013-11-08 15:32:00,
2013-11-08 09:47:00,56.0,35.0,30.01,SW,236,2.0,11.0,45,0.00,,,0.00,weatherlink.com 1.10,2013-11-08 15:47:00,
2013-11-08 10:02:00,56.7,35.0,30.01,NNW,338,3.0,15.0,45,0.00,,,0.00,weatherlink.com 1.10,2013-11-08 16:02:00,
2013-11-08 10:17:00,57.8,35.0,30.00,SSW,193,4.0,12.0,43,0.00,,,0.00,weatherlink.com 1.10,2013-11-08 16:17:00,
2013-11-08 10:33:00,59.1,35.0,29.99,ESE,111,4.0,17.0,41,0.00,,,0.00,weatherlink.com 1.10,2013-11-08 16:33:00,
2013-11-08 10:48:00,59.7,34.0,29.97,ENE,63,6.0,16.0,39,0.00,,,0.00,weatherlink.com 1.10,2013-11-08 16:48:00,
2013-11-08 11:03:00,59.8,35.0,29.97,SSW,210,6.0,17.0,39,0.00,,,0.00,weatherlink.com 1.10,2013-11-08 17:03:00,
2013-11-08 11:18:00,60.0,35.0,29.96,SSE,158,5.0,15.0,40,0.00,,,0.00,weatherlink.com 1.10,2013-11-08 17:18:00,
2013-11-08 11:32:00,60.3,36.0,29.95,SW,230,6.0,21.0,40,0.00,,,0.00,weatherlink.com 1.10,2013-11-08 17:32:00,
2013-11-08 11:47:00,60.3,34.0,29.94,SSE,149,18.0,18.0,38,0.00,,,0.00,weatherlink.com 1.10,2013-11-08 17:47:00,
2013-11-08 12:03:00,60.5,36.0,29.94,SW,228,4.0,13.0,40,0.00,,,0.00,weatherlink.com 1.10,2013-11-08 18:03:00,
2013-11-08 12:17:00,61.3,35.0,29.93,SSE,159,6.0,16.0,37,0.00,,,0.00,weatherlink.com 1.10,2013-11-08 18:17:00,
2013-11-08 12:33:00,62.8,37.0,29.91,SE,131,6.0,20.0,38,0.00,,,0.00,weatherlink.com 1.10,2013-11-08 18:33:00,
2013-11-08 12:48:00,63.2,36.0,29.89,SE,127,4.0,19.0,37,0.00,,,0.00,weatherlink.com 1.10,2013-11-08 18:48:00,
2013-11-08 13:03:00,64.0,35.0,29.89,SE,136,9.0,13.0,34,0.00,,,0.00,weatherlink.com 1.10,2013-11-08 19:03:00,
2013-11-08 13:18:00,64.1,34.0,29.87,WSW,248,3.0,19.0,33,0.00,,,0.00,weatherlink.com 1.10,2013-11-08 19:18:00,
2013-11-08 13:33:00,64.4,35.0,29.87,WNW,285,4.0,19.0,33,0.00,,,0.00,weatherlink.com 1.10,2013-11-08 19:33:00,
2013-11-08 13:48:00,64.2,36.0,29.86,SE,142,6.0,19.0,35,0.00,,,0.00,weatherlink.com 1.10,2013-11-08 19:48:00,
2013-11-08 14:03:00,64.0,36.0,29.85,SW,235,1.0,16.0,35,0.00,,,0.00,weatherlink.com 1.10,2013-11-08 20:03:00,
2013-11-08 14:18:00,64.3,35.0,29.85,ENE,77,4.0,16.0,34,0.00,,,0.00,weatherlink.com 1.10,2013-11-08 20:18:00,
2013-11-08 14:34:00,64.4,33.0,29.84,SSE,157,2.0,14.0,31,0.00,,,0.00,weatherlink.com 1.10,2013-11-08 20:34:00,
2013-11-08 14:48:00,64.3,32.0,29.83,WSW,255,2.0,11.0,30,0.00,,,0.00,weatherlink.com 1.10,2013-11-08 20:48:00,
2013-11-08 15:03:00,64.2,31.0,29.82,West,273,5.0,20.0,29,0.00,,,0.00,weatherlink.com 1.10,2013-11-08 21:03:00,
2013-11-08 15:18:00,63.6,31.0,29.82,SW,215,6.0,18.0,30,0.00,,,0.00,weatherlink.com 1.10,2013-11-08 21:18:00,
2013-11-08 15:33:00,63.2,33.0,29.80,SE,146,4.0,28.0,32,0.00,,,0.00,weatherlink.com 1.10,2013-11-08 21:33:00,
2013-11-08 15:49:00,62.6,33.0,29.80,SSE,166,2.0,20.0,33,0.00,,,0.00,weatherlink.com 1.10,2013-11-08 21:49:00,
2013-11-08 16:03:00,62.2,34.0,29.81,SW,231,6.0,13.0,35,0.00,,,0.00,weatherlink.com 1.10,2013-11-08 22:03:00,
2013-11-08 16:19:00,61.6,34.0,29.81,SSW,194,6.0,14.0,35,0.00,,,0.00,weatherlink.com 1.10,2013-11-08 22:19:00,
2013-11-08 16:34:00,61.2,33.0,29.81,ENE,68,4.0,17.0,35,0.00,,,0.00,weatherlink.com 1.10,2013-11-08 22:34:00,
2013-11-08 16:49:00,60.7,34.0,29.83,SSE,163,6.0,13.0,37,0.00,,,0.00,weatherlink.com 1.10,2013-11-08 22:49:00,
2013-11-08 17:04:00,59.9,34.0,29.83,WSW,243,1.0,16.0,38,0.00,,,0.00,weatherlink.com 1.10,2013-11-08 23:04:00,
2013-11-08 17:20:00,59.1,35.0,29.84,South,179,4.0,10.0,40,0.00,,,0.00,weatherlink.com 1.10,2013-11-08 23:20:00,
2013-11-08 17:35:00,58.5,35.0,29.83,South,180,4.0,14.0,41,0.00,,,0.00,weatherlink.com 1.10,2013-11-08 23:35:00,
2013-11-08 17:49:00,58.2,34.0,29.84,SSW,206,3.0,14.0,41,0.00,,,0.00,weatherlink.com 1.10,2013-11-08 23:49:00,
2013-11-08 18:05:00,57.7,34.0,29.84,SE,136,5.0,14.0,41,0.00,,,0.00,weatherlink.com 1.10,2013-11-09 00:05:00,
2013-11-08 18:19:00,57.6,34.0,29.85,SSW,200,3.0,13.0,41,0.00,,,0.00,weatherlink.com 1.10,2013-11-09 00:19:00,
2013-11-08 18:35:00,57.3,34.0,29.86,SW,233,2.0,11.0,42,0.00,,,0.00,weatherlink.com 1.10,2013-11-09 00:35:00,
2013-11-08 18:49:00,57.0,34.0,29.86,WSW,248,5.0,18.0,42,0.00,,,0.00,weatherlink.com 1.10,2013-11-09 00:49:00,
2013-11-08 19:05:00,56.7,34.0,29.86,SW,233,8.0,13.0,43,0.00,,,0.00,weatherlink.com 1.10,2013-11-09 01:05:00,
2013-11-08 19:19:00,56.2,34.0,29.87,ESE,123,8.0,14.0,44,0.00,,,0.00,weatherlink.com 1.10,2013-11-09 01:19:00,
2013-11-08 19:35:00,55.9,35.0,29.86,WSW,238,2.0,14.0,45,0.00,,,0.00,weatherlink.com 1.10,2013-11-09 01:35:00,
2013-11-08 19:50:00,55.4,35.0,29.87,SW,234,1.0,14.0,46,0.00,,,0.00,weatherlink.com 1.10,2013-11-09 01:50:00,
2013-11-08 20:05:00,54.9,35.0,29.87,SSE,159,7.0,10.0,47,0.00,,,0.00,weatherlink.com 1.10,2013-11-09 02:05:00,
2013-11-08 20:20:00,54.6,35.0,29.87,SE,126,3.0,14.0,48,0.00,,,0.00,weatherlink.com 1.10,2013-11-09 02:20:00,
2013-11-08 20:35:00,54.2,35.0,29.88,ESE,113,5.0,12.0,49,0.00,,,0.00,weatherlink.com 1.10,2013-11-09 02:35:00,
2013-11-08 20:51:00,53.7,35.0,29.88,South,174,4.0,13.0,50,0.00,,,0.00,weatherlink.com 1.10,2013-11-09 02:51:00,
2013-11-08 21:06:00,53.5,36.0,29.89,ESE,121,2.0,13.0,51,0.00,,,0.00,weatherlink.com 1.10,2013-11-09 03:06:00,
2013-11-08 21:21:00,53.1,35.0,29.89,West,269,2.0,10.0,51,0.00,,,0.00,weatherlink.com 1.10,2013-11-09 03:21:00,
2013-11-08 21:36:00,52.8,35.0,29.89,SSW,207,3.0,12.0,52,0.00,,,0.00,weatherlink.com 1.10,2013-11-09 03:36:00,
2013-11-08 21:51:00,52.4,35.0,29.89,East,97,3.0,14.0,52,0.00,,,0.00,weatherlink.com 1.10,2013-11-09 03:51:00,
2013-11-08 22:06:00,52.4,35.0,29.89,WSW,249,7.0,9.0,52,0.00,,,0.00,weatherlink.com 1.10,2013-11-09 04:06:00,
2013-11-08 22:21:00,52.4,36.0,29.90,ESE,107,2.0,9.0,53,0.00,,,0.00,weatherlink.com 1.10,2013-11-09 04:21:00,
2013-11-08 22:36:00,51.8,35.0,29.91,SSW,210,1.0,9.0,53,0.00,,,0.00,weatherlink.com 1.10,2013-11-09 04:36:00,
2013-11-08 22:51:00,51.6,35.0,29.90,SSW,210,0.0,7.0,54,0.00,,,0.00,weatherlink.com 1.10,2013-11-09 04:51:00,
2013-11-08 23:05:00,51.2,35.0,29.91,SSE,155,2.0,6.0,55,0.00,,,0.00,weatherlink.com 1.10,2013-11-09 05:05:00,
2013-11-08 23:21:00,50.7,35.0,29.90,South,187,2.0,7.0,56,0.00,,,0.00,weatherlink.com 1.10,2013-11-09 05:21:00,
2013-11-08 23:36:00,50.4,35.0,29.90,NE,50,2.0,6.0,57,0.00,,,0.00,weatherlink.com 1.10,2013-11-09 05:36:00,
2013-11-08 23:50:00,50.5,35.0,29.90,SSW,195,1.0,8.0,56,0.00,,,0.00,weatherlink.com 1.10,2013-11-09 05:50:00,